DL1NUX-15 Weather Reports


time (UTC)temp
C
wind
direction
speed
KPH
gust
KPH
rain 1hr
cm
rain 24hr
cm
rain mn
cm
humidity
%
barometer
mb
20260505064526 15 274 0.0 1.6 0.00 0.10 0.10 89 1010.6
20260505060528 13 0.0 0.0 0.00 0.10 0.10 94 1010.6
20260505055528 13 0.0 0.0 0.00 0.10 0.10 95 1010.5
20260505054529 13 0.0 0.0 0.00 0.10 0.10 96 1010.4
20260505053531 13 0.0 0.0 0.00 0.10 0.10 97 1010.6
20260505051529 12 275 1.6 3.2 0.00 0.10 0.10 96 1010.5
20260505040532 12 0.0 0.0 0.03 0.10 0.10 93 1010.5
20260505035533 12 248 0.0 1.6 0.03 0.10 0.10 92 1010.7
20260505033534 12 271 0.0 3.2 0.05 0.10 0.10 91 1010.8
20260505031535 12 22 1.6 4.8 0.03 0.08 0.08 91 1011.2
20260505024536 12 355 1.6 4.8 0.08 0.08 0.08 96 1011.6
20260505022536 12 270 0.0 1.6 0.05 0.05 0.05 95 1012.1
20260505020537 13 248 1.6 1.6 0.05 0.05 0.05 92 1012.3
20260505015538 13 233 1.6 3.2 0.00 0.00 0.00 89 1012.4
20260505012539 13 254 0.0 1.6 0.00 0.00 0.00 88 1012.3
20260505010540 13 267 0.0 1.6 0.00 0.00 0.00 82 1012.4
20260505004541 14 0.0 0.0 0.00 0.00 0.00 80 1012.4
20260504235543 15 268 0.0 1.6 0.00 0.00 0.00 75 1012.4
20260504231544 15 279 0.0 1.6 0.00 0.00 0.00 75 1012.8
20260504230545 15 271 0.0 3.2 0.00 0.00 0.00 75 1013.0
20260504225546 15 277 0.0 1.6 0.00 0.00 0.00 75 1013.0
20260504220547 15 274 0.0 3.2 0.00 0.00 0.00 74 1013.2
20260504205550 16 279 0.0 3.2 0.00 0.00 0.00 70 1013.4
20260504204551 16 281 0.0 3.2 0.00 0.00 0.00 69 1013.4
20260504203551 16 284 0.0 3.2 0.00 0.00 0.00 69 1013.4
20260504195553 17 279 1.6 3.2 0.00 0.00 0.00 66 1013.4
20260504194553 17 287 0.0 3.2 0.00 0.00 0.00 65 1013.4
20260504185556 18 279 1.6 3.2 0.00 0.00 0.00 61 1013.3
20260504184556 18 283 1.6 4.8 0.00 0.00 0.00 59 1013.4
20260504183556 18 284 1.6 8.0 0.00 0.00 0.00 57 1013.3
20260504181557 19 279 0.0 3.2 0.00 0.00 0.00 54 1013.0
20260504180557 20 269 0.0 1.6 0.00 0.00 0.00 54 1013.0
20260504175558 20 280 0.0 1.6 0.00 0.00 0.00 53 1013.0
20260504173558 20 269 1.6 4.8 0.00 0.00 0.00 53 1013.1
20260504172559 20 275 1.6 8.0 0.00 0.00 0.00 52 1013.0
20260504170600 20 280 3.2 4.8 0.00 0.00 0.00 50 1012.7
20260504100533 20 218 3.2 8.0 0.00 0.00 0.00 46 1015.5